Regional Weather Roundup
Issued by NWS Sioux Falls, SD

Home | Current Version | Previous Version | Text Only | Print | Product List | Glossary Off
Versions: 1 2 3 4 5 6 7 8 9 10 11 12 13 14 15 16 17 18 19 20 21 22 23 24 25 26 27 28 29 30 31 32 33 34 35 36 37 38 39 40 41 42 43 44 45 46 47 48 49 50

000
ASUS43 KFSD 220802
RWRFSD

WEATHER ROUNDUP FOR SE SOUTH DAKOTA/SW MINNESOTA/NW IOWA
NATIONAL WEATHER SERVICE SIOUX FALLS SD
300 AM CDT FRI AUG 22 2014

NOTE: "FAIR" INDICATES FEW OR NO CLOUDS BELOW 12,000 FEET WITH NO
SIGNIFICANT WEATHER AND OR OBSTRUCTIONS TO VISIBILITY.


SDZ038>040-050-052>070-220900-
SOUTHEAST SOUTH DAKOTA

CITY           SKY/WX    TMP DP  RH WIND       PRES   REMARKS
CHAMBERLAIN    CLEAR     65  64  94 CALM      29.93F
HURON          CLEAR     63  62  97 CALM      29.91S
MADISON        FAIR      64  64 100 NW6       29.92F
MITCHELL       CLEAR     65  64  97 NW5       29.91F
SIOUX FALLS    CLEAR     68  66  93 CALM      29.90R
WINNER         FAIR      68  63  84 SE7       29.94S
YANKTON        CLEAR     68  66  94 CALM      29.89R
$$

MNZ071-072-080-081-089-090-097-098-220900-
SOUTHWEST MINNESOTA

CITY           SKY/WX    TMP DP  RH WIND       PRES   REMARKS
FAIRMONT       CLEAR     68  63  83 MISG      29.89R
JACKSON        PTCLDY    68  64  88 CALM      29.90R
LUVERNE        CLEAR     68  63  83 CALM      29.90R
MARSHALL       CLEAR     66  63  88 NW8       29.88S
MONTEVIDEO     FOG       70  66  88 CALM      29.90R VSB<1/4
PIPESTONE      CLEAR     70  66  88 N6        29.92R
REDWOOD FALLS  FOG       71  71 100 CALM      29.88R VSB 1/4
TRACY          CLEAR     70  68  95 W5        29.89S
WINDOM         PTCLDY    72  68  88 CALM      29.89S
WORTHINGTON    PTCLDY    66   9  10 NW5       29.91S
$$

IAZ001>003-012>014-020>022-031-032-NEZ013-014-SDZ071-220900-
NORTHWEST IOWA

CITY           SKY/WX    TMP DP  RH WIND       PRES   REMARKS
CHEROKEE       MOCLDY    73  73 100 CALM      29.88R FOG
DENISON        CLOUDY    77  75  94 CALM      29.88R
ESTHERVILLE    PTCLDY    67  66  97 CALM      29.89R
LE MARS        PTCLDY    73  72  94 CALM      29.90R
ORANGE CITY    PTCLDY    73  70  88 NE5       29.90R
SHELDON        PTCLDY    70  68  94 NE5       29.89R
SIOUX CITY     MOCLDY    76  73  91 SW3       29.87R
SPENCER        MOCLDY    70  68  93 CALM      29.90R
STORM LAKE     CLOUDY    73  73 100 S8        29.91R
$$

ABBREVIATIONS USED IN REMARKS
   TC - TEMPERATURE IN CELSIUS
  WCI - WIND CHILL INDEX
   HX - HEAT INDEX
  VSB - VISIBILITY




USA.gov is the U.S. government's official web portal to all federal, state and local government web resources and services.